Flag for U.S.A. Weather past 2 weeks in Anaheim, California, U.S.A.

Now
73 °F

Clear.


Feels Like: 76 °F
Forecast: 68 / 91 °F
Wind: No wind

Location: Fullerton Municipal Airport

Current Time: Aug 5, 2015 at 12:31:48 AM

Latest Report: Aug 4, 2015 at 11:53 PM


Visibility: 10 mi

Pressure: 29.90 "Hg

Humidity: 59%

Dew point: 58 °F

Location of AnaheimLocation

Historic Weather in Anaheim — Graph

°F

Anaheim temperature yesterday

Maximum temperature yesterday: 89 °F (at 2:53 PM)
Minimum temperature yesterday: 68 °F (at 3:53 AM)
Average temperature yesterday: 78 °F

Past Weeks' High & Low Weather Summary

 TemperatureHumidityPressure
High89 °F (Jul 25, 1:53 PM)90% (Jul 20, 10:53 PM)30.07 "Hg (Jul 20, 10:53 PM)
Low68 °F (Jul 27, 1:53 AM)30% (Jul 25, 12:53 PM)29.80 "Hg (Aug 2, 6:53 PM)
Average76 °F67%29.91 "Hg
* Reported Jul 20 10:53 PM — Aug 4 10:53 PM, Anaheim, Weather by CustomWeather, © 2015

Note: Actual official high and low records may vary slightly from our data, if they occured in-between our weather recording intervals... More about our weather records

Advertising

Anaheim weather history for previous 24 hours

 ConditionsComfort  
Time TempWeatherWind HumidityBarometerVisibility
10:53 PM
Tue, Aug 4
74 °FClear.5 mph56%29.90 "Hg10 mi
9:53 PM74 °FClear.No wind56%29.90 "Hg10 mi
8:53 PM76 °FClear.5 mph52%29.88 "Hg10 mi
7:53 PM78 °FSunny.5 mph46%29.87 "Hg10 mi
6:53 PM82 °FSunny.7 mph40%29.86 "Hg10 mi
5:53 PM87 °FSunny.8 mph35%29.86 "Hg10 mi
4:53 PM89 °FSunny.6 mph34%29.86 "Hg10 mi
3:53 PM89 °FSunny.7 mph38%29.88 "Hg10 mi
2:53 PM89 °FSunny.5 mph34%29.88 "Hg10 mi
1:53 PM87 °FSunny.8 mph40%29.90 "Hg10 mi
12:53 PM86 °FSunny.8 mph42%29.90 "Hg10 mi
11:53 AM84 °FSunny.6 mph51%29.92 "Hg10 mi
10:53 AM82 °FSunny.No wind51%29.92 "Hg10 mi
9:53 AM79 °FSunny.No wind54%29.92 "Hg10 mi
8:53 AM76 °FSunny.No wind62%29.92 "Hg10 mi
7:53 AM72 °FSunny.No wind68%29.90 "Hg10 mi
6:53 AM70 °FClear.3 mph71%29.88 "Hg10 mi
5:53 AM68 °FClear.No wind76%29.88 "Hg10 mi
4:53 AM68 °FClear.3 mph76%29.85 "Hg10 mi
3:53 AM68 °FClear.No wind76%29.86 "Hg10 mi
2:53 AM69 °FClear.No wind73%29.85 "Hg10 mi
1:53 AM70 °FClear.No wind71%29.86 "Hg10 mi
12:53 AM71 °FClear.No wind68%29.87 "Hg10 mi
Weather by CustomWeather, © 2015

See weather overviewHow to use our weather pages